Historyczne dane pomiarowe

Dodano dane terminowe – wersja testowa.

Dane z okresu 1951-2019

Wersja bazy: 1.34 [2019-03-16, lista zmian], aktualizacja planowana na 2019-04-15

Dane meteo z obszaru Polski uzyskane na podstawie danych udostępnionych przez Instytut Meteorologii i Gospodarki Wodnej – Państwowy Instytut Badawczy.

 

Wybierz Datę:    

       

TemperaturaWilgotnośćWiatrCiśnienieOpadyŚniegCzas trwania zjawisk
 Stacja t tx tn tng RH VA  wxwx mslp ppp RRR   cm mm wxwxwxwxwxwxwx
1956-11-09-11.1 -8.6-12.9- 12.5- 5.3 5.0---- 0.0-- 58---------
1956-11-08-14.0-11.6-17.0- 47.5- 3.0 9.0---- 1.5-- 62---------
1956-11-07-12.1 -8.9-12.9- 86.5- 8.0 9.3---- 22.8-- 35---------
1956-11-06-11.4 -4.8-12.5- 85.3- 8.0 6.7---- 12.1-- 14---------
1956-11-05 -6.0 -4.9 -8.6- 91.8- 7.7 7.7---- 7.1-- 7---------
1956-11-04 -9.5 -7.4-14.6- 40.0- 2.0 1.7---- 0.0-- 9---------
1956-11-03-12.5 -8.2-14.0- 87.0- 7.0 6.0---- 1.4-- 7---------
1956-11-02 -6.8 -2.4 -8.9- 90.0- 7.0 4.3---- 1.3-- 7---------
1956-11-01 -3.3 -0.9 -5.3- 15.0- 0.0 1.7---- 0.0-- 8---------
1956-10-31 -6.3 -4.6-10.3- 38.0- 2.3 6.7---- 0.0-- 11---------
1956-10-30 -5.1 -0.4 -7.1- 92.0- 4.7 2.7---- 0.0-- 12---------
1956-10-29 -6.6 -5.4 -7.5- 90.5- 8.0 4.3---- 6.8-- 5---------
1956-10-28 -2.3 2.1 -5.7- 95.0- 8.0 5.7---- 10.6------------
1956-10-27 2.0 3.0 1.0- 97.8- 6.7 7.0---- 3.0------------
1956-10-26 1.0 4.3 -1.0- 97.5- 6.0 9.0---- 0.3------------
1956-10-25 2.4 5.9 0.8- 63.5- 0.0 8.0---- 0.0------------
1956-10-24 5.6 6.9 5.0- 40.0- 1.7 3.0---- 0.0------------
1956-10-23 5.9 8.1 4.2- 47.5- 0.0 2.7---- 0.0------------
1956-10-22 5.9 7.6 2.3- 52.8- 1.0 2.3---- 0.0-- 2---------
1956-10-21 3.8 5.7 2.1- 87.5- 6.3 2.0---- 0.0-- 3---------
1956-10-20 2.7 3.2 1.8- 93.0- 8.0 5.7---- 0.3-- 4---------
1956-10-19 2.3 2.8 1.2- 99.5- 7.7 4.7---- 1.9-- 6---------
1956-10-18 2.6 5.3 1.3- 78.0- 7.3 2.7---- 1.6-- 10---------
1956-10-17 3.8 6.0 -0.4- 62.3- 0.3 2.0---- 0.0-- 12---------
1956-10-16 0.1 3.0 -5.6- 64.0- 0.0 3.3---- 0.0-- 14---------
1956-10-15 -4.6 -1.3 -8.6- 69.3- 0.0 1.7---- 0.0-- 16---------
1956-10-14 -1.7 1.1 -3.7- 97.0- 8.0 10.0---- 5.9-- 17---------
1956-10-13 -2.1 2.7 -3.3- 86.5- 7.7 10.7---- 0.3-- 21---------
1956-10-12 -0.4 3.0 -5.5- 61.3- 3.7 4.0---- 0.0-- 24---------
1956-10-11 -4.8 -3.6 -9.8- 65.8- 3.7 4.3---- 0.0-- 27---------
1956-10-10 -7.5 -3.3 -9.8- 90.8- 5.0 7.0---- 1.8-- 29---------
1956-10-09 -5.0 -3.4 -8.0- 87.5- 4.0 5.7---- 6.2-- 27---------
1956-10-08 -6.0 -3.2 -7.3- 88.5- 4.0 1.3---- 0.0-- 32---------
1956-10-07 -6.8 -6.0 -7.9- 89.8- 5.0 6.3---- 0.5-- 35---------
1956-10-06 -4.3 0.0 -7.0- 95.8- 8.0 5.7---- 26.4-- 8---------
1956-10-05 -0.5 2.4 -2.1- 90.0- 6.7 3.7---- 12.9------------
1956-10-04 2.0 6.5 -0.1-100.0- 7.7 7.0---- 11.2------------
1956-10-03 7.5 11.7 5.6- 82.0- 7.3 5.3---- 9.6------------
1956-10-02 8.4 11.6 6.7- 72.3- 1.3 10.0---- 0.0------------
1956-10-01 9.7 12.4 5.9- 55.3- 3.3 6.0---- 0.0------------
1956-09-30 7.1 10.4 5.2- 94.3- 3.7 2.0---- 0.0------------
1956-09-29 7.9 11.4 2.5- 87.3- 5.3 4.7---- 0.0------------
1956-09-28 3.7 5.7 2.7- 91.5- 5.0 2.7---- 0.6------------
1956-09-27 5.6 8.6 3.8- 91.8- 6.7 10.7---- 0.3------------
1956-09-26 6.1 9.6 2.8- 46.8- 0.0 11.3---- 0.0------------
1956-09-25 6.1 8.0 3.2- 39.8- 0.7 8.7---- 0.0------------
1956-09-24 7.4 10.4 4.2- 55.5- 0.0 1.7---- 0.0------------
1956-09-23 6.4 9.6 5.1- 73.0- 0.3 0.3---- 0.0------------
1956-09-22 6.4 9.8 4.2- 69.0- 0.7 0.0---- 0.0------------
1956-09-21 5.1 8.1 1.0- 63.0- 0.7 1.3---- 0.0------------
1956-09-20 2.1 4.3 -0.2- 53.5- 5.0 5.7---- 0.0-- 6---------
1956-09-19 -1.0 1.4 -5.4- 77.0- 1.3 2.3---- 0.0-- 10---------
1956-09-18 -4.1 -2.0 -5.5- 94.0- 7.3 6.0---- 2.5-- 5---------
1956-09-17 -1.7 4.1 -2.2- 98.3- 7.0 7.0---- 8.3------------
1956-09-16 4.3 7.6 0.3- 73.3- 3.7 6.3---- 0.0-- 2---------
1956-09-15 0.6 2.2 -2.5- 96.0- 3.7 3.7---- 0.0-- 3---------
1956-09-14 -2.2 -1.6 -3.3- 96.3- 8.0 9.3---- 3.4-- 3---------
1956-09-13 -3.3 -2.1 -4.0- 95.3- 8.0 6.0---- 7.5-- 2---------
1956-09-12 0.8 4.8 -2.2- 95.8- 8.0 11.3---- 9.0------------
1956-09-11 6.0 11.1 4.6- 93.3- 7.7 9.3---- 5.5------------
423.9 ms

 

Źródłem pochodzenia danych jest Instytut Meteorologii i Gospodarki Wodnej – Państwowy Instytut Badawczy. Dane Instytutu Meteorologii i Gospodarki Wodnej – Państwowego Instytutu Badawczego zostały przetworzone.

Dane źródłowe można odnaleźć na stronie https://dane.imgw.pl